ASIASAT 9

Last updated on Oct. 21, 2020, 5:57 a.m. UTC

1 42942U 17057A   20294.50743729 -.00000371  00000-0  00000-0 0  9997
2 42942   0.0055  90.7793 0002171 124.2459 119.1898  1.00269488 11227
UTC
Height (km)
Latitude
Longitude
Inclination
Orbital Period
UTC large
Height (km)
Speed (km/s)
/
Latitude / Longitude
Inclination (degrees)
Orbital Period (minutes)
Azimuth
Elevation
Range (km)
Doppler Factor
iOS Compass Heading
iOS Angle

Next 30 passes for location: Hong Kong

Rise time Rise Azimuth (degrees) Set time Set Azimuth (degrees) Duration Max altitude (degrees)

No matching passes for this satellites